ROT261N LROP-LFPG

Flight info

Callsign ROT261N
Flight time N/A
Altitude 36000
Route SOKRU DCT OXDOC DCT ENIMA DCT ERUKO DCT GESBA DCT MOPUG DCT DIMLO/N0455F380 DCT DETSA/N0453F370 DCT SAFFA/N0453F380 DCT ELMUR DCT RIPUS L613 HOC/N0451F370 DCT MOROK/N0448F350 DCT PENDU DCT JAVVU DCT GIVRI/N0449F380 DCT TINIL
Aircraft B738/M-SDE2E3FGHIRWXY/LB1

Departure

Time N/A
Airport Bucharest Henri Coandă International Airport (LROP)

Arrival

Time 2026-05-08 20:30
Airport Charles de Gaulle International Airport (LFPG)
Time Latitude Longitude Altitude Speed Heading
2026-05-08 19:39 47.46086 7.67335 38048 ft 424 kts 278°
2026-05-08 19:39 47.46228 7.58652 38053 ft 424 kts 265°
2026-05-08 19:40 47.45625 7.49987 38054 ft 424 kts 264°
2026-05-08 19:40 47.45183 7.41283 38034 ft 426 kts 274°
2026-05-08 19:41 47.46398 7.32730 38043 ft 428 kts 289°
2026-05-08 19:41 47.48874 7.24734 38037 ft 428 kts 294°
2026-05-08 19:42 47.51464 7.16817 38034 ft 427 kts 294°
2026-05-08 19:42 47.54025 7.08895 38038 ft 427 kts 294°
2026-05-08 19:43 47.56557 7.00956 38034 ft 426 kts 294°
2026-05-08 19:43 47.59072 6.93016 38036 ft 426 kts 294°
2026-05-08 19:44 47.61579 6.85067 38034 ft 425 kts 294°
2026-05-08 19:44 47.64077 6.77122 38040 ft 425 kts 293°
2026-05-08 19:45 47.66573 6.69162 38042 ft 426 kts 293°
2026-05-08 19:45 47.69066 6.61185 38047 ft 426 kts 293°
2026-05-08 19:46 47.71558 6.53187 38049 ft 427 kts 293°
2026-05-08 19:46 47.75282 6.41185 38052 ft 429 kts 293°
2026-05-08 19:47 47.77774 6.33125 38053 ft 430 kts 293°
2026-05-08 19:47 47.80260 6.25054 38049 ft 428 kts 293°
2026-05-08 19:48 47.82727 6.17022 38044 ft 427 kts 293°
2026-05-08 19:48 47.85076 6.09352 38036 ft 426 kts 293°
2026-05-08 19:49 47.87526 6.01321 38032 ft 425 kts 293°
2026-05-08 19:49 47.89968 5.93291 38031 ft 425 kts 293°
2026-05-08 19:50 47.92405 5.85253 38034 ft 425 kts 293°
2026-05-08 19:50 47.94838 5.77204 38044 ft 426 kts 293°
2026-05-08 19:51 47.97268 5.69137 38034 ft 426 kts 293°
2026-05-08 19:51 47.99696 5.61050 38046 ft 427 kts 293°
2026-05-08 19:52 48.02119 5.52951 38043 ft 428 kts 293°
2026-05-08 19:52 48.04529 5.44873 38047 ft 428 kts 293°
2026-05-08 19:53 48.06951 5.36726 37938 ft 431 kts 293°
2026-05-08 19:53 48.08171 5.32613 37636 ft 432 kts 293°
2026-05-08 19:53 48.09382 5.28522 37371 ft 428 kts 293°
2026-05-08 19:54 48.10579 5.24472 37101 ft 424 kts 293°
2026-05-08 19:54 48.11769 5.20440 36844 ft 422 kts 293°
2026-05-08 19:54 48.12951 5.16427 36588 ft 421 kts 293°
2026-05-08 19:54 48.14130 5.12418 36328 ft 419 kts 293°
2026-05-08 19:55 48.15304 5.08421 36080 ft 418 kts 293°
2026-05-08 19:55 48.16470 5.04442 35840 ft 417 kts 293°
2026-05-08 19:55 48.17632 5.00471 35584 ft 416 kts 293°
2026-05-08 19:55 48.18791 4.96507 35336 ft 415 kts 293°
2026-05-08 19:56 48.19948 4.92539 35099 ft 414 kts 293°
2026-05-08 19:56 48.21099 4.88585 34621 ft 414 kts 293°
2026-05-08 19:56 48.22244 4.84648 33943 ft 415 kts 293°
2026-05-08 19:56 48.23393 4.80690 33224 ft 413 kts 294°
2026-05-08 19:57 48.24536 4.76744 32637 ft 410 kts 294°
2026-05-08 19:57 48.25665 4.72843 32113 ft 405 kts 294°
2026-05-08 19:57 48.26779 4.68985 31591 ft 401 kts 294°
2026-05-08 19:57 48.27877 4.65175 31004 ft 394 kts 294°
2026-05-08 19:58 48.28959 4.61420 30276 ft 392 kts 295°
2026-05-08 19:58 48.30035 4.57677 29455 ft 389 kts 295°
2026-05-08 19:58 48.31103 4.53957 28676 ft 385 kts 295°
2026-05-08 19:58 48.32161 4.50268 27908 ft 382 kts 295°
2026-05-08 19:59 48.33197 4.46649 27167 ft 379 kts 294°
2026-05-08 19:59 48.34233 4.43024 26446 ft 376 kts 294°
2026-05-08 19:59 48.35260 4.39425 25755 ft 373 kts 294°
2026-05-08 19:59 48.36279 4.35848 25086 ft 370 kts 295°
2026-05-08 20:00 48.37294 4.32279 24455 ft 371 kts 295°
2026-05-08 20:00 48.38311 4.28704 23835 ft 372 kts 295°
2026-05-08 20:00 48.39329 4.25115 23217 ft 371 kts 294°
2026-05-08 20:00 48.40336 4.21560 22683 ft 368 kts 294°
2026-05-08 20:01 48.41331 4.18043 22199 ft 363 kts 294°
2026-05-08 20:01 48.42313 4.14563 21703 ft 360 kts 294°
2026-05-08 20:01 48.43287 4.11110 21243 ft 356 kts 293°
2026-05-08 20:01 48.44253 4.07681 20785 ft 353 kts 293°
2026-05-08 20:02 48.45207 4.04289 20304 ft 351 kts 293°
2026-05-08 20:02 48.46153 4.00919 19865 ft 348 kts 292°
2026-05-08 20:02 48.47093 3.97568 19418 ft 346 kts 292°
2026-05-08 20:02 48.48027 3.94234 18967 ft 344 kts 292°
2026-05-08 20:03 48.48954 3.90915 18517 ft 343 kts 291°
2026-05-08 20:03 48.49926 3.87634 18117 ft 341 kts 295°
2026-05-08 20:03 48.51023 3.84495 17864 ft 335 kts 297°
2026-05-08 20:03 48.52151 3.81416 17597 ft 339 kts 297°
2026-05-08 20:04 48.53291 3.78263 17337 ft 343 kts 297°
2026-05-08 20:04 48.54046 3.76159 17159 ft 345 kts 297°
2026-05-08 20:04 48.55185 3.72977 16920 ft 344 kts 297°
2026-05-08 20:04 48.56321 3.69805 16653 ft 342 kts 297°
2026-05-08 20:05 48.57451 3.66649 16388 ft 341 kts 297°
2026-05-08 20:05 48.58576 3.63507 16008 ft 339 kts 297°
2026-05-08 20:05 48.59690 3.60392 15596 ft 336 kts 297°
2026-05-08 20:05 48.60795 3.57296 15183 ft 335 kts 297°
2026-05-08 20:06 48.61946 3.54272 15087 ft 327 kts 300°
2026-05-08 20:06 48.63156 3.51415 15074 ft 318 kts 302°
2026-05-08 20:06 48.64355 3.48666 15062 ft 308 kts 302°
2026-05-08 20:06 48.65511 3.46019 15047 ft 296 kts 302°
2026-05-08 20:07 48.66615 3.43478 15059 ft 283 kts 301°
2026-05-08 20:07 48.67674 3.41024 14823 ft 280 kts 301°
2026-05-08 20:07 48.68744 3.38523 14266 ft 288 kts 301°
2026-05-08 20:07 48.69869 3.35886 13526 ft 308 kts 301°
2026-05-08 20:08 48.71059 3.33092 13360 ft 322 kts 301°
2026-05-08 20:08 48.72290 3.30198 13234 ft 331 kts 301°
2026-05-08 20:08 48.73541 3.27255 13126 ft 333 kts 301°
2026-05-08 20:08 48.74786 3.24323 13076 ft 329 kts 301°
2026-05-08 20:09 48.76026 3.21395 13068 ft 330 kts 301°
2026-05-08 20:09 48.77268 3.18462 13064 ft 331 kts 301°
2026-05-08 20:09 48.78511 3.15523 13070 ft 331 kts 301°
2026-05-08 20:09 48.79752 3.12582 13068 ft 331 kts 301°
2026-05-08 20:10 48.80992 3.09642 13061 ft 331 kts 301°
2026-05-08 20:10 48.82229 3.06706 13064 ft 330 kts 301°
2026-05-08 20:10 48.83447 3.03811 13051 ft 319 kts 301°
2026-05-08 20:10 48.84641 3.01046 13062 ft 308 kts 305°
2026-05-08 20:11 48.86005 2.98613 13054 ft 296 kts 311°
2026-05-08 20:11 48.87155 2.96778 13050 ft 286 kts 312°
2026-05-08 20:11 48.88498 2.94636 13054 ft 274 kts 311°
2026-05-08 20:11 48.89771 2.92567 13045 ft 263 kts 311°
2026-05-08 20:12 48.90986 2.90567 13057 ft 251 kts 310°
2026-05-08 20:12 48.92139 2.88657 13057 ft 241 kts 310°
2026-05-08 20:12 48.93218 2.86747 13062 ft 236 kts 298°
2026-05-08 20:12 48.93681 2.84442 13086 ft 232 kts 272°
2026-05-08 20:13 48.93654 2.81970 13086 ft 234 kts 265°
2026-05-08 20:13 48.93515 2.79491 12887 ft 240 kts 264°
2026-05-08 20:13 48.93354 2.76877 12180 ft 258 kts 264°
2026-05-08 20:13 48.93181 2.74019 11346 ft 281 kts 264°
2026-05-08 20:14 48.93008 2.71040 10965 ft 283 kts 264°
2026-05-08 20:14 48.92844 2.68115 10906 ft 273 kts 264°
2026-05-08 20:14 48.92688 2.65288 10829 ft 263 kts 264°
2026-05-08 20:14 48.92540 2.62553 10761 ft 255 kts 265°
2026-05-08 20:15 48.92396 2.59913 10667 ft 247 kts 264°
2026-05-08 20:15 48.92255 2.57321 10451 ft 246 kts 265°
2026-05-08 20:15 48.92115 2.54735 10195 ft 245 kts 265°
2026-05-08 20:15 48.91975 2.52158 9949 ft 244 kts 265°
2026-05-08 20:16 48.91833 2.49587 9673 ft 244 kts 264°
2026-05-08 20:16 48.91691 2.47021 9409 ft 243 kts 264°
2026-05-08 20:16 48.91549 2.44452 9153 ft 243 kts 264°
2026-05-08 20:16 48.91407 2.41888 8902 ft 243 kts 264°
2026-05-08 20:17 48.91263 2.39331 8632 ft 242 kts 264°
2026-05-08 20:17 48.91122 2.36814 8388 ft 242 kts 264°
2026-05-08 20:17 48.90979 2.34273 8156 ft 240 kts 264°
2026-05-08 20:17 48.90840 2.31794 8083 ft 231 kts 264°
2026-05-08 20:18 48.90705 2.29418 8060 ft 222 kts 264°
2026-05-08 20:18 48.90573 2.27087 8064 ft 220 kts 264°
2026-05-08 20:18 48.90439 2.24746 8075 ft 220 kts 264°
2026-05-08 20:18 48.90308 2.22422 8087 ft 222 kts 264°
2026-05-08 20:19 48.90175 2.20110 8083 ft 223 kts 264°
2026-05-08 20:19 48.90038 2.17753 8085 ft 224 kts 264°
2026-05-08 20:19 48.89901 2.15382 8088 ft 225 kts 264°
2026-05-08 20:19 48.89762 2.13007 8075 ft 227 kts 264°
2026-05-08 20:20 48.89619 2.10623 8086 ft 226 kts 264°
2026-05-08 20:20 48.89472 2.08241 8087 ft 227 kts 264°
2026-05-08 20:20 48.89328 2.05857 8063 ft 224 kts 264°
2026-05-08 20:20 48.89217 2.03519 7900 ft 221 kts 265°
2026-05-08 20:21 48.89112 2.01112 7355 ft 235 kts 265°
2026-05-08 20:21 48.89160 1.98609 6971 ft 242 kts 285°
2026-05-08 20:21 48.90016 1.96433 6781 ft 243 kts 317°
2026-05-08 20:21 48.91496 1.95236 6628 ft 244 kts 347°
2026-05-08 20:22 48.93165 1.95364 6507 ft 241 kts 20°
2026-05-08 20:22 48.94542 1.96775 6389 ft 243 kts 51°
2026-05-08 20:22 48.95474 1.98933 6282 ft 245 kts 60°
2026-05-08 20:22 48.96120 2.01314 6148 ft 243 kts 77°
2026-05-08 20:23 48.96425 2.03814 6085 ft 239 kts 83°
2026-05-08 20:23 48.96601 2.06325 6020 ft 239 kts 86°
2026-05-08 20:23 48.96741 2.08842 5955 ft 239 kts 86°
2026-05-08 20:23 48.96925 2.11351 5896 ft 239 kts 84°
2026-05-08 20:24 48.97096 2.13821 5811 ft 231 kts 85°
2026-05-08 20:24 48.97233 2.16251 5548 ft 228 kts 86°
2026-05-08 20:24 48.97355 2.18640 5239 ft 224 kts 86°
2026-05-08 20:24 48.97471 2.20974 4943 ft 218 kts 86°
2026-05-08 20:25 48.97583 2.23253 4645 ft 213 kts 86°
2026-05-08 20:25 48.97693 2.25470 4360 ft 207 kts 86°
2026-05-08 20:25 48.97801 2.27626 4076 ft 201 kts 86°
2026-05-08 20:25 48.97906 2.29720 3817 ft 196 kts 86°
2026-05-08 20:26 48.98009 2.31760 3554 ft 191 kts 85°
2026-05-08 20:26 48.98110 2.33759 3305 ft 187 kts 85°
2026-05-08 20:26 48.98212 2.35712 3056 ft 183 kts 85°
2026-05-08 20:26 48.98309 2.37626 2828 ft 180 kts 86°
2026-05-08 20:27 48.98404 2.39537 2565 ft 180 kts 85°
2026-05-08 20:27 48.98502 2.41426 2325 ft 176 kts 85°
2026-05-08 20:27 48.98593 2.43211 2109 ft 162 kts 85°
2026-05-08 20:27 48.98676 2.44860 1890 ft 155 kts 85°
2026-05-08 20:28 48.98763 2.46477 1700 ft 153 kts 84°
2026-05-08 20:28 48.98846 2.48052 1484 ft 148 kts 85°
2026-05-08 20:28 48.98922 2.49590 1275 ft 144 kts 84°
2026-05-08 20:28 48.99003 2.51110 1049 ft 144 kts 84°
2026-05-08 20:29 48.99086 2.52628 876 ft 145 kts 84°
2026-05-08 20:29 48.99164 2.54168 689 ft 147 kts 84°
2026-05-08 20:29 48.99248 2.55713 489 ft 146 kts 83°
2026-05-08 20:29 48.99328 2.57239 358 ft 140 kts 83°
2026-05-08 20:30 48.99396 2.58504 351 ft 92 kts 85°
2026-05-08 20:30 48.99427 2.59065 358 ft 34 kts 81°
2026-05-08 20:30 48.99500 2.59362 357 ft 25 kts 65°
2026-05-08 20:30 48.99561 2.59562 356 ft 17 kts 65°
2026-05-08 20:31 48.99615 2.59680 357 ft 11 kts 24°
2026-05-08 20:31 48.99674 2.59689 353 ft 8 kts 359°
2026-05-08 20:31 48.99705 2.59686 353 ft 3 kts 355°
2026-05-08 20:31 48.99737 2.59682 353 ft 8 kts 355°
2026-05-08 20:32 48.99822 2.59672 355 ft 15 kts 355°
2026-05-08 20:32 48.99906 2.59661 361 ft 10 kts 355°
2026-05-08 20:32 48.99961 2.59655 353 ft 5 kts 355°
2026-05-08 20:32 48.99988 2.59651 353 ft 2 kts 355°
2026-05-08 20:33 48.99998 2.59650 357 ft 1 kts 355°
2026-05-08 20:33 49.00011 2.59648 357 ft 3 kts 355°
2026-05-08 20:33 49.00048 2.59644 360 ft 7 kts 355°
2026-05-08 20:33 49.00110 2.59636 353 ft 10 kts 355°
2026-05-08 20:34 49.00188 2.59626 353 ft 12 kts 355°
2026-05-08 20:34 49.00268 2.59616 353 ft 11 kts 355°
2026-05-08 20:34 49.00421 2.59596 358 ft 11 kts 355°
2026-05-08 20:35 49.00493 2.59587 353 ft 10 kts 355°
2026-05-08 20:35 49.00574 2.59577 353 ft 13 kts 355°
2026-05-08 20:35 49.00680 2.59564 353 ft 17 kts 355°
2026-05-08 20:35 49.00809 2.59547 353 ft 19 kts 355°
2026-05-08 20:36 49.00923 2.59533 356 ft 14 kts 355°
2026-05-08 20:36 49.00995 2.59499 355 ft 10 kts 311°
2026-05-08 20:36 49.01001 2.59405 354 ft 9 kts 265°
2026-05-08 20:36 49.00995 2.59307 357 ft 10 kts 265°
2026-05-08 20:37 49.00987 2.59185 354 ft 13 kts 265°
2026-05-08 20:37 49.00972 2.59037 354 ft 15 kts 252°
2026-05-08 20:37 49.00947 2.58883 355 ft 15 kts 265°
2026-05-08 20:37 49.00939 2.58731 359 ft 14 kts 265°
2026-05-08 20:38 49.00931 2.58585 354 ft 13 kts 265°
2026-05-08 20:38 49.00924 2.58446 362 ft 13 kts 265°
2026-05-08 20:38 49.00917 2.58311 354 ft 12 kts 265°
2026-05-08 20:38 49.00910 2.58181 354 ft 12 kts 265°
2026-05-08 20:39 49.00903 2.58056 354 ft 12 kts 265°
2026-05-08 20:39 49.00897 2.57933 354 ft 11 kts 265°
2026-05-08 20:39 49.00892 2.57844 360 ft 7 kts 265°
2026-05-08 20:39 49.00888 2.57778 357 ft 5 kts 261°
2026-05-08 20:40 49.00873 2.57740 359 ft 3 kts 218°
2026-05-08 20:40 49.00855 2.57731 356 ft 3 kts 190°
2026-05-08 20:40 49.00836 2.57732 354 ft 3 kts 179°
2026-05-08 20:40 49.00819 2.57723 356 ft 3 kts 206°
2026-05-08 20:41 49.00799 2.57693 358 ft 5 kts 241°
2026-05-08 20:41 49.00792 2.57622 360 ft 8 kts 265°
2026-05-08 20:41 49.00787 2.57539 354 ft 8 kts 265°
2026-05-08 20:41 49.00783 2.57458 354 ft 7 kts 265°
2026-05-08 20:42 49.00766 2.57408 357 ft 5 kts 206°
2026-05-08 20:42 49.00734 2.57401 356 ft 4 kts 184°
2026-05-08 20:42 49.00718 2.57400 356 ft 1 kts 183°
2026-05-08 20:42 49.00712 2.57399 357 ft 1 kts 184°
2026-05-08 20:43 49.00708 2.57399 357 ft 0 kts 184°